Year,Month,Day,Hour,Minute,Value (Times are PST for temperature in C)
2012,06,06,00,00,8.40
2012,06,06,00,01,8.40
2012,06,06,00,02,8.40
2012,06,06,00,03,8.40
2012,06,06,00,04,8.40
2012,06,06,00,05,8.40
2012,06,06,00,06,8.30
2012,06,06,00,07,8.30
2012,06,06,00,08,8.30
2012,06,06,00,09,8.20
2012,06,06,00,10,8.20
2012,06,06,00,11,8.20
2012,06,06,00,12,8.20
2012,06,06,00,13,8.20
2012,06,06,00,14,8.20
2012,06,06,00,15,8.20
2012,06,06,00,16,8.20
2012,06,06,00,17,8.20
2012,06,06,00,18,8.20
2012,06,06,00,19,8.20
2012,06,06,00,20,8.20
2012,06,06,00,21,8.20
2012,06,06,00,22,8.20
2012,06,06,00,23,8.20
2012,06,06,00,24,8.20
2012,06,06,00,25,8.20
2012,06,06,00,26,8.20
2012,06,06,00,27,8.20
2012,06,06,00,28,8.20
2012,06,06,00,29,8.20
2012,06,06,00,30,8.20
2012,06,06,00,31,8.20
2012,06,06,00,32,8.20
2012,06,06,00,33,8.20
2012,06,06,00,34,8.20
2012,06,06,00,35,8.20
2012,06,06,00,36,8.20
2012,06,06,00,37,8.10
2012,06,06,00,38,8.10
2012,06,06,00,39,8.10
2012,06,06,00,40,8.10
2012,06,06,00,41,8.10
2012,06,06,00,42,8.10
2012,06,06,00,43,8.10
2012,06,06,00,44,8.00
2012,06,06,00,45,8.00
2012,06,06,00,46,8.00
2012,06,06,00,47,8.00
2012,06,06,00,48,8.00
2012,06,06,00,49,8.10
2012,06,06,00,50,8.10
2012,06,06,00,51,8.10
2012,06,06,00,52,8.00
2012,06,06,00,53,8.00
2012,06,06,00,54,8.00
2012,06,06,00,55,8.00
2012,06,06,00,56,8.00
2012,06,06,00,57,7.90
2012,06,06,00,58,7.90
2012,06,06,00,59,7.90
2012,06,06,01,00,7.90
2012,06,06,01,01,7.80
2012,06,06,01,02,7.80
2012,06,06,01,03,7.80
2012,06,06,01,04,7.80
2012,06,06,01,05,7.80
2012,06,06,01,06,7.80
2012,06,06,01,07,7.70
2012,06,06,01,08,7.70
2012,06,06,01,09,7.60
2012,06,06,01,10,7.60
2012,06,06,01,11,7.60
2012,06,06,01,12,7.50
2012,06,06,01,13,7.50
2012,06,06,01,14,7.50
2012,06,06,01,15,7.40
2012,06,06,01,16,7.40
2012,06,06,01,17,7.40
2012,06,06,01,18,7.40
2012,06,06,01,19,7.30
2012,06,06,01,20,7.30
2012,06,06,01,21,7.40
2012,06,06,01,22,7.40
2012,06,06,01,23,7.40
2012,06,06,01,24,7.40
2012,06,06,01,25,7.30
2012,06,06,01,26,7.30
2012,06,06,01,27,7.30
2012,06,06,01,28,7.30
2012,06,06,01,29,7.30
2012,06,06,01,30,7.30
2012,06,06,01,31,7.30
2012,06,06,01,32,7.30
2012,06,06,01,33,7.20
2012,06,06,01,34,7.20
2012,06,06,01,35,7.20
2012,06,06,01,36,7.10
2012,06,06,01,37,7.10
2012,06,06,01,38,7.10
2012,06,06,01,39,7.00
2012,06,06,01,40,7.00
2012,06,06,01,41,6.90
2012,06,06,01,42,6.90
2012,06,06,01,43,6.90
2012,06,06,01,44,6.80
2012,06,06,01,45,6.80
2012,06,06,01,46,6.80
2012,06,06,01,47,6.80
2012,06,06,01,48,6.80
2012,06,06,01,49,6.70
2012,06,06,01,50,6.70
2012,06,06,01,51,6.70
2012,06,06,01,52,6.70
2012,06,06,01,53,6.60
2012,06,06,01,54,6.60
2012,06,06,01,55,6.60
2012,06,06,01,56,6.60
2012,06,06,01,57,6.60
2012,06,06,01,58,6.60
2012,06,06,01,59,6.40
2012,06,06,02,00,6.40
2012,06,06,02,01,6.40
2012,06,06,02,02,6.40
2012,06,06,02,03,6.40
2012,06,06,02,04,6.40
2012,06,06,02,05,6.40
2012,06,06,02,06,6.40
2012,06,06,02,07,6.40
2012,06,06,02,08,6.40
2012,06,06,02,09,6.50
2012,06,06,02,10,6.60
2012,06,06,02,11,6.60
2012,06,06,02,12,6.60
2012,06,06,02,13,6.60
2012,06,06,02,14,6.60
2012,06,06,02,15,6.60
2012,06,06,02,16,6.60
2012,06,06,02,17,6.50
2012,06,06,02,18,6.50
2012,06,06,02,19,6.40
2012,06,06,02,20,6.50
2012,06,06,02,21,6.60
2012,06,06,02,22,6.50
2012,06,06,02,23,6.50
2012,06,06,02,24,6.60
2012,06,06,02,25,6.60
2012,06,06,02,26,6.60
2012,06,06,02,27,6.60
2012,06,06,02,28,6.60
2012,06,06,02,29,6.60
2012,06,06,02,30,6.60
2012,06,06,02,31,6.60
2012,06,06,02,32,6.60
2012,06,06,02,33,6.60
2012,06,06,02,34,6.60
2012,06,06,02,35,6.60
2012,06,06,02,36,6.60
2012,06,06,02,37,6.60
2012,06,06,02,38,6.60
2012,06,06,02,39,6.60
2012,06,06,02,40,6.60
2012,06,06,02,41,6.60
2012,06,06,02,42,6.60
2012,06,06,02,43,6.60
2012,06,06,02,44,6.60
2012,06,06,02,45,6.60
2012,06,06,02,46,6.60
2012,06,06,02,47,6.60
2012,06,06,02,48,6.60
2012,06,06,02,49,6.60
2012,06,06,02,50,6.60
2012,06,06,02,51,6.60
2012,06,06,02,52,6.60
2012,06,06,02,53,6.60
2012,06,06,02,54,6.60
2012,06,06,02,55,6.60
2012,06,06,02,56,6.60
2012,06,06,02,57,6.60
2012,06,06,02,58,6.60
2012,06,06,02,59,6.60
2012,06,06,03,00,6.60
2012,06,06,03,01,6.60
2012,06,06,03,02,6.60
2012,06,06,03,03,6.60
2012,06,06,03,04,6.60
2012,06,06,03,05,6.60
2012,06,06,03,06,6.40
2012,06,06,03,07,6.40
2012,06,06,03,08,6.40
2012,06,06,03,09,6.60
2012,06,06,03,10,6.60
2012,06,06,03,11,6.60
2012,06,06,03,12,6.60
2012,06,06,03,13,6.60
2012,06,06,03,14,6.60
2012,06,06,03,15,6.50
2012,06,06,03,16,6.40
2012,06,06,03,17,6.40
2012,06,06,03,18,6.40
2012,06,06,03,19,6.40
2012,06,06,03,20,6.40
2012,06,06,03,21,6.40
2012,06,06,03,22,6.40
2012,06,06,03,23,6.40
2012,06,06,03,24,6.40
2012,06,06,03,25,6.30
2012,06,06,03,26,6.30
2012,06,06,03,27,6.30
2012,06,06,03,28,6.30
2012,06,06,03,29,6.30
2012,06,06,03,30,6.30
2012,06,06,03,31,6.30
2012,06,06,03,32,6.20
2012,06,06,03,33,6.20
2012,06,06,03,34,6.20
2012,06,06,03,35,6.20
2012,06,06,03,36,6.20
2012,06,06,03,37,6.20
2012,06,06,03,38,6.20
2012,06,06,03,39,6.20
2012,06,06,03,40,6.20
2012,06,06,03,41,6.20
2012,06,06,03,42,6.20
2012,06,06,03,43,6.20
2012,06,06,03,44,6.20
2012,06,06,03,45,6.20
2012,06,06,03,46,6.20
2012,06,06,03,47,6.20
2012,06,06,03,48,6.20
2012,06,06,03,49,6.20
2012,06,06,03,50,6.20
2012,06,06,03,51,6.20
2012,06,06,03,52,6.20
2012,06,06,03,53,6.20
2012,06,06,03,54,6.20
2012,06,06,03,55,6.20
2012,06,06,03,56,6.20
2012,06,06,03,57,6.20
2012,06,06,03,58,6.20
2012,06,06,03,59,6.20
2012,06,06,04,00,6.20
2012,06,06,04,01,6.20
2012,06,06,04,02,6.20
2012,06,06,04,03,6.20
2012,06,06,04,04,6.20
2012,06,06,04,05,6.20
2012,06,06,04,06,6.20
2012,06,06,04,07,6.10
2012,06,06,04,08,6.10
2012,06,06,04,09,6.10
2012,06,06,04,10,6.10
2012,06,06,04,11,6.10
2012,06,06,04,12,6.10
2012,06,06,04,13,6.10
2012,06,06,04,14,6.10
2012,06,06,04,15,6.10
2012,06,06,04,16,6.10
2012,06,06,04,17,6.10
2012,06,06,04,18,6.10
2012,06,06,04,19,6.10
2012,06,06,04,20,6.10
2012,06,06,04,21,6.10
2012,06,06,04,22,6.10
2012,06,06,04,23,6.10
2012,06,06,04,24,6.10
2012,06,06,04,25,6.00
2012,06,06,04,26,6.00
2012,06,06,04,27,6.00
2012,06,06,04,28,6.00
2012,06,06,04,29,6.00
2012,06,06,04,30,6.00
2012,06,06,04,31,6.00
2012,06,06,04,32,6.00
2012,06,06,04,33,6.00
2012,06,06,04,34,6.00
2012,06,06,04,35,6.00
2012,06,06,04,36,6.00
2012,06,06,04,37,6.00
2012,06,06,04,38,6.00
2012,06,06,04,39,6.00
2012,06,06,04,40,6.00
2012,06,06,04,41,6.00
2012,06,06,04,42,6.00
2012,06,06,04,43,6.00
2012,06,06,04,44,6.00
2012,06,06,04,45,6.00
2012,06,06,04,46,6.00
2012,06,06,04,47,6.00
2012,06,06,04,48,6.00
2012,06,06,04,49,6.00
2012,06,06,04,50,6.00
2012,06,06,04,51,6.00
2012,06,06,04,52,6.00
2012,06,06,04,53,5.90
2012,06,06,04,54,5.90
2012,06,06,04,55,5.90
2012,06,06,04,56,5.90
2012,06,06,04,57,5.90
2012,06,06,04,58,5.90
2012,06,06,04,59,5.90
2012,06,06,05,00,5.90
2012,06,06,05,01,5.90
2012,06,06,05,02,5.80
2012,06,06,05,03,5.80
2012,06,06,05,04,5.80
2012,06,06,05,05,5.80
2012,06,06,05,06,5.80
2012,06,06,05,07,5.80
2012,06,06,05,08,5.80
2012,06,06,05,09,5.80
2012,06,06,05,10,5.80
2012,06,06,05,11,5.80
2012,06,06,05,12,5.90
2012,06,06,05,13,5.90
2012,06,06,05,14,5.90
2012,06,06,05,15,5.90
2012,06,06,05,16,5.90
2012,06,06,05,17,5.90
2012,06,06,05,18,5.90
2012,06,06,05,19,5.90
2012,06,06,05,20,5.90
2012,06,06,05,21,5.90
2012,06,06,05,22,5.90
2012,06,06,05,23,5.90
2012,06,06,05,24,5.90
2012,06,06,05,25,5.90
2012,06,06,05,26,5.90
2012,06,06,05,27,5.90
2012,06,06,05,28,5.90
2012,06,06,05,29,5.90
2012,06,06,05,30,5.90
2012,06,06,05,31,5.90
2012,06,06,05,32,5.90
2012,06,06,05,33,5.90
2012,06,06,05,34,5.90
2012,06,06,05,35,5.80
2012,06,06,05,36,5.80
2012,06,06,05,37,5.80
2012,06,06,05,38,5.80
2012,06,06,05,39,5.90
2012,06,06,05,40,5.90
2012,06,06,05,41,5.90
2012,06,06,05,42,5.90
2012,06,06,05,43,5.90
2012,06,06,05,44,5.90
2012,06,06,05,45,5.90
2012,06,06,05,46,5.90
2012,06,06,05,47,5.90
2012,06,06,05,48,5.90
2012,06,06,05,49,5.90
2012,06,06,05,50,5.90
2012,06,06,05,51,5.90
2012,06,06,05,52,5.90
2012,06,06,05,53,5.90
2012,06,06,05,54,5.90
2012,06,06,05,55,5.90
2012,06,06,05,56,5.90
2012,06,06,05,57,6.00
2012,06,06,05,58,6.00
2012,06,06,05,59,6.00
2012,06,06,06,00,6.00
2012,06,06,06,01,6.00
2012,06,06,06,02,6.00
2012,06,06,06,03,6.10
2012,06,06,06,04,6.10
2012,06,06,06,05,6.20
2012,06,06,06,06,6.20
2012,06,06,06,07,6.20
2012,06,06,06,08,6.20
2012,06,06,06,09,6.30
2012,06,06,06,10,6.30
2012,06,06,06,11,6.30
2012,06,06,06,12,6.30
2012,06,06,06,13,6.40
2012,06,06,06,14,6.40
2012,06,06,06,15,6.40
2012,06,06,06,16,6.40
2012,06,06,06,17,6.40
2012,06,06,06,18,6.40
2012,06,06,06,19,6.40
2012,06,06,06,20,6.50
2012,06,06,06,21,6.60
2012,06,06,06,22,6.60
2012,06,06,06,23,6.60
2012,06,06,06,24,6.70
2012,06,06,06,25,6.80
2012,06,06,06,26,6.80
2012,06,06,06,27,6.90
2012,06,06,06,28,7.00
2012,06,06,06,29,7.00
2012,06,06,06,30,7.10
2012,06,06,06,31,7.20
2012,06,06,06,32,7.30
2012,06,06,06,33,7.30
2012,06,06,06,34,7.40
2012,06,06,06,35,7.40
2012,06,06,06,36,7.50
2012,06,06,06,37,7.50
2012,06,06,06,38,7.60
2012,06,06,06,39,7.60
2012,06,06,06,40,7.60
2012,06,06,06,41,7.70
2012,06,06,06,42,7.70
2012,06,06,06,43,7.80
2012,06,06,06,44,7.80
2012,06,06,06,45,7.90
2012,06,06,06,46,8.00
2012,06,06,06,47,8.00
2012,06,06,06,48,8.10
2012,06,06,06,49,8.10
2012,06,06,06,50,8.20
2012,06,06,06,51,8.20
2012,06,06,06,52,8.20
2012,06,06,06,53,8.30
2012,06,06,06,54,8.40
2012,06,06,06,55,8.40
2012,06,06,06,56,8.50
2012,06,06,06,57,8.50
2012,06,06,06,58,8.60
2012,06,06,06,59,8.70
2012,06,06,07,00,8.70
2012,06,06,07,01,8.70
2012,06,06,07,02,8.70
2012,06,06,07,03,8.80
2012,06,06,07,04,8.80
2012,06,06,07,05,8.90
2012,06,06,07,06,8.90
2012,06,06,07,07,9.00
2012,06,06,07,08,9.00
2012,06,06,07,09,9.00
2012,06,06,07,10,9.10
2012,06,06,07,11,9.10
2012,06,06,07,12,9.20
2012,06,06,07,13,9.20
2012,06,06,07,14,9.30
2012,06,06,07,15,9.40
2012,06,06,07,16,9.40
2012,06,06,07,17,9.50
2012,06,06,07,18,9.60
2012,06,06,07,19,9.70
2012,06,06,07,20,9.70
2012,06,06,07,21,9.80
2012,06,06,07,22,9.80
2012,06,06,07,23,9.90
2012,06,06,07,24,9.90
2012,06,06,07,25,9.90
2012,06,06,07,26,10.00
2012,06,06,07,27,10.10
2012,06,06,07,28,10.10
2012,06,06,07,29,10.10
2012,06,06,07,30,10.20
2012,06,06,07,31,10.30
2012,06,06,07,32,10.30
2012,06,06,07,33,10.40
2012,06,06,07,34,10.40
2012,06,06,07,35,10.40
2012,06,06,07,36,10.60
2012,06,06,07,37,10.60
2012,06,06,07,38,10.60
2012,06,06,07,39,10.70
2012,06,06,07,40,10.70
2012,06,06,07,41,10.80
2012,06,06,07,42,10.80
2012,06,06,07,43,10.90
2012,06,06,07,44,10.90
2012,06,06,07,45,11.00
2012,06,06,07,46,11.10
2012,06,06,07,47,11.10
2012,06,06,07,48,11.20
2012,06,06,07,49,11.30
2012,06,06,07,50,11.30
2012,06,06,07,51,11.30
2012,06,06,07,52,11.30
2012,06,06,07,53,11.30
2012,06,06,07,54,11.30
2012,06,06,07,55,11.40
2012,06,06,07,56,11.40
2012,06,06,07,57,11.40
2012,06,06,07,58,11.40
2012,06,06,07,59,11.40
2012,06,06,08,00,11.40
2012,06,06,08,01,11.50
2012,06,06,08,02,11.60
2012,06,06,08,03,11.60
2012,06,06,08,04,11.70
2012,06,06,08,05,11.70
2012,06,06,08,06,11.80
2012,06,06,08,07,11.80
2012,06,06,08,08,11.80
2012,06,06,08,09,11.80
2012,06,06,08,10,11.80
2012,06,06,08,11,11.90
2012,06,06,08,12,11.90
2012,06,06,08,13,11.90
2012,06,06,08,14,11.80
2012,06,06,08,15,11.90
2012,06,06,08,16,11.90
2012,06,06,08,17,11.90
2012,06,06,08,18,11.90
2012,06,06,08,19,11.80
2012,06,06,08,20,11.80
2012,06,06,08,21,11.80
2012,06,06,08,22,11.80
2012,06,06,08,23,11.80
2012,06,06,08,24,11.80
2012,06,06,08,25,11.90
2012,06,06,08,26,11.90
2012,06,06,08,27,11.90
2012,06,06,08,28,11.90
2012,06,06,08,29,12.00
2012,06,06,08,30,12.00
2012,06,06,08,31,12.00
2012,06,06,08,32,12.00
2012,06,06,08,33,12.00
2012,06,06,08,34,12.10
2012,06,06,08,35,12.20
2012,06,06,08,36,12.30
2012,06,06,08,37,12.30
2012,06,06,08,38,12.30
2012,06,06,08,39,12.30
2012,06,06,08,40,12.30
2012,06,06,08,41,12.40
2012,06,06,08,42,12.40
2012,06,06,08,43,12.40
2012,06,06,08,44,12.30
2012,06,06,08,45,12.30
2012,06,06,08,46,12.30
2012,06,06,08,47,12.30
2012,06,06,08,48,12.30
2012,06,06,08,49,12.30
2012,06,06,08,50,12.30
2012,06,06,08,51,12.40
2012,06,06,08,52,12.50
2012,06,06,08,53,12.50
2012,06,06,08,54,12.50
2012,06,06,08,55,12.50
2012,06,06,08,56,12.60
2012,06,06,08,57,12.70
2012,06,06,08,58,12.80
2012,06,06,08,59,12.80
2012,06,06,09,00,12.80
2012,06,06,09,01,12.80
2012,06,06,09,02,12.80
2012,06,06,09,03,12.80
2012,06,06,09,04,12.80
2012,06,06,09,05,12.80
2012,06,06,09,06,12.80
2012,06,06,09,07,12.80
2012,06,06,09,08,12.70
2012,06,06,09,09,12.70
2012,06,06,09,10,12.80
2012,06,06,09,11,12.80
2012,06,06,09,12,12.80
2012,06,06,09,13,12.90
2012,06,06,09,14,12.90
2012,06,06,09,15,12.90
2012,06,06,09,16,12.90
2012,06,06,09,17,13.00
2012,06,06,09,18,13.10
2012,06,06,09,19,13.10
2012,06,06,09,20,13.20
2012,06,06,09,21,13.20
2012,06,06,09,22,13.20
2012,06,06,09,23,13.20
2012,06,06,09,24,13.20
2012,06,06,09,25,13.10
2012,06,06,09,26,13.20
2012,06,06,09,27,13.20
2012,06,06,09,28,13.30
2012,06,06,09,29,13.20
2012,06,06,09,30,13.10
2012,06,06,09,31,13.10
2012,06,06,09,32,13.10
2012,06,06,09,33,13.00
2012,06,06,09,34,12.90
2012,06,06,09,35,12.90
2012,06,06,09,36,12.90
2012,06,06,09,37,12.90
2012,06,06,09,38,12.90
2012,06,06,09,39,12.80
2012,06,06,09,40,12.70
2012,06,06,09,41,12.50
2012,06,06,09,42,12.50
2012,06,06,09,43,12.40
2012,06,06,09,44,12.40
2012,06,06,09,45,12.40
2012,06,06,09,46,12.40
2012,06,06,09,47,12.40
2012,06,06,09,48,12.40
2012,06,06,09,49,12.40
2012,06,06,09,50,12.50
2012,06,06,09,51,12.50
2012,06,06,09,52,12.50
2012,06,06,09,53,12.40
2012,06,06,09,54,12.30
2012,06,06,09,55,12.20
2012,06,06,09,56,12.20
2012,06,06,09,57,12.10
2012,06,06,09,58,12.10
2012,06,06,09,59,12.10
2012,06,06,10,00,12.20
2012,06,06,10,01,12.20
2012,06,06,10,02,12.20
2012,06,06,10,03,12.20
2012,06,06,10,04,12.10
2012,06,06,10,05,12.20
2012,06,06,10,06,12.20
2012,06,06,10,07,12.10
2012,06,06,10,08,12.10
2012,06,06,10,09,12.00
2012,06,06,10,10,12.10
2012,06,06,10,11,12.10
2012,06,06,10,12,12.10
2012,06,06,10,13,12.20
2012,06,06,10,14,12.10
2012,06,06,10,15,12.10
2012,06,06,10,16,12.20
2012,06,06,10,17,12.30
2012,06,06,10,18,12.30
2012,06,06,10,19,12.20
2012,06,06,10,20,12.20
2012,06,06,10,21,12.30
2012,06,06,10,22,12.30
2012,06,06,10,23,12.30
2012,06,06,10,24,12.30
2012,06,06,10,25,12.30
2012,06,06,10,26,12.30
2012,06,06,10,27,12.40
2012,06,06,10,28,12.40
2012,06,06,10,29,12.40
2012,06,06,10,30,12.50
2012,06,06,10,31,12.50
2012,06,06,10,32,12.50
2012,06,06,10,33,12.40
2012,06,06,10,34,12.40
2012,06,06,10,35,12.40
2012,06,06,10,36,12.40
2012,06,06,10,37,12.50
2012,06,06,10,38,12.50
2012,06,06,10,39,12.50
2012,06,06,10,40,12.40
2012,06,06,10,41,12.40
2012,06,06,10,42,12.50
2012,06,06,10,43,12.60
2012,06,06,10,44,12.60
2012,06,06,10,45,12.60
2012,06,06,10,46,12.70
2012,06,06,10,47,12.80
2012,06,06,10,48,12.80
2012,06,06,10,49,12.80
2012,06,06,10,50,12.70
2012,06,06,10,51,12.70
2012,06,06,10,52,12.80
2012,06,06,10,53,12.90
2012,06,06,10,54,12.80
2012,06,06,10,55,12.80
2012,06,06,10,56,12.80
2012,06,06,10,57,12.80
2012,06,06,10,58,12.90
2012,06,06,10,59,12.90
2012,06,06,11,00,12.90
2012,06,06,11,01,12.90
2012,06,06,11,02,12.80
2012,06,06,11,03,12.80
2012,06,06,11,04,12.80
2012,06,06,11,05,12.80
2012,06,06,11,06,12.90
2012,06,06,11,07,13.00
2012,06,06,11,08,13.00
2012,06,06,11,09,13.10
2012,06,06,11,10,13.10
2012,06,06,11,11,13.20
2012,06,06,11,12,13.20
2012,06,06,11,13,13.10
2012,06,06,11,14,13.10
2012,06,06,11,15,13.10
2012,06,06,11,16,13.00
2012,06,06,11,17,13.10
2012,06,06,11,18,13.10
2012,06,06,11,19,13.20
2012,06,06,11,20,13.30
2012,06,06,11,21,13.30
2012,06,06,11,22,13.40
2012,06,06,11,23,13.50
2012,06,06,11,24,13.50
2012,06,06,11,25,13.60
2012,06,06,11,26,13.60
2012,06,06,11,27,13.60
2012,06,06,11,28,13.50
2012,06,06,11,29,13.30
2012,06,06,11,30,13.30
2012,06,06,11,31,13.30
2012,06,06,11,32,13.30
2012,06,06,11,33,13.40
2012,06,06,11,34,13.40
2012,06,06,11,35,13.50
2012,06,06,11,36,13.50
2012,06,06,11,37,13.50
2012,06,06,11,38,13.40
2012,06,06,11,39,13.40
2012,06,06,11,40,13.50
2012,06,06,11,41,13.40
2012,06,06,11,42,13.60
2012,06,06,11,43,13.70
2012,06,06,11,44,13.60
2012,06,06,11,45,13.60
2012,06,06,11,46,13.60
2012,06,06,11,47,13.60
2012,06,06,11,48,13.60
2012,06,06,11,49,13.70
2012,06,06,11,50,13.60
2012,06,06,11,51,13.60
2012,06,06,11,52,13.70
2012,06,06,11,53,13.60
2012,06,06,11,54,13.60
2012,06,06,11,55,13.60
2012,06,06,11,56,13.50
2012,06,06,11,57,13.50
2012,06,06,11,58,13.40
2012,06,06,11,59,13.40
2012,06,06,12,00,13.40
2012,06,06,12,01,13.40
2012,06,06,12,02,13.50
2012,06,06,12,03,13.60
2012,06,06,12,04,13.70
2012,06,06,12,05,13.80
2012,06,06,12,06,13.80
2012,06,06,12,07,13.70
2012,06,06,12,08,13.80
2012,06,06,12,09,13.70
2012,06,06,12,10,13.90
2012,06,06,12,11,13.90
2012,06,06,12,12,13.90
2012,06,06,12,13,13.80
2012,06,06,12,14,13.60
2012,06,06,12,15,13.60
2012,06,06,12,16,13.50
2012,06,06,12,17,13.40
2012,06,06,12,18,13.30
2012,06,06,12,19,13.30
2012,06,06,12,20,13.20
2012,06,06,12,21,13.10
2012,06,06,12,22,13.10
2012,06,06,12,23,13.10
2012,06,06,12,24,13.10
2012,06,06,12,25,13.20
2012,06,06,12,26,13.20
2012,06,06,12,27,13.30
2012,06,06,12,28,13.30
2012,06,06,12,29,13.30
2012,06,06,12,30,13.40
2012,06,06,12,31,13.50
2012,06,06,12,32,13.60
2012,06,06,12,33,13.70
2012,06,06,12,34,13.80
2012,06,06,12,35,13.90
2012,06,06,12,36,14.00
2012,06,06,12,37,14.20
2012,06,06,12,38,14.20
2012,06,06,12,39,14.10
2012,06,06,12,40,14.20
2012,06,06,12,41,14.10
2012,06,06,12,42,14.00
2012,06,06,12,43,13.90
2012,06,06,12,44,13.80
2012,06,06,12,45,13.70
2012,06,06,12,46,13.70
2012,06,06,12,47,13.60
2012,06,06,12,48,13.50
2012,06,06,12,49,13.40
2012,06,06,12,50,13.40
2012,06,06,12,51,13.60
2012,06,06,12,52,13.70
2012,06,06,12,53,13.70
2012,06,06,12,54,13.80
2012,06,06,12,55,13.90
2012,06,06,12,56,14.10
2012,06,06,12,57,14.20
2012,06,06,12,58,14.20
2012,06,06,12,59,14.40
2012,06,06,13,00,14.40
2012,06,06,13,01,14.20
2012,06,06,13,02,14.10
2012,06,06,13,03,14.00
2012,06,06,13,04,14.00
2012,06,06,13,05,14.00
2012,06,06,13,06,14.00
2012,06,06,13,07,13.80
2012,06,06,13,08,13.80
2012,06,06,13,09,13.80
2012,06,06,13,10,13.80
2012,06,06,13,11,13.80
2012,06,06,13,12,13.80
2012,06,06,13,13,13.80
2012,06,06,13,14,13.80
2012,06,06,13,15,13.70
2012,06,06,13,16,13.70
2012,06,06,13,17,13.70
2012,06,06,13,18,13.70
2012,06,06,13,19,13.60
2012,06,06,13,20,13.60
2012,06,06,13,21,13.50
2012,06,06,13,22,13.50
2012,06,06,13,23,13.50
2012,06,06,13,24,13.50
2012,06,06,13,25,13.50
2012,06,06,13,26,13.50
2012,06,06,13,27,13.50
2012,06,06,13,28,13.50
2012,06,06,13,29,13.40
2012,06,06,13,30,13.40
2012,06,06,13,31,13.40
2012,06,06,13,32,13.30
2012,06,06,13,33,13.30
2012,06,06,13,34,13.40
2012,06,06,13,35,13.40
2012,06,06,13,36,13.30
2012,06,06,13,37,13.30
2012,06,06,13,38,13.40
2012,06,06,13,39,13.60
2012,06,06,13,40,13.80
2012,06,06,13,41,13.90
2012,06,06,13,42,14.00
2012,06,06,13,43,14.00
2012,06,06,13,44,13.90
2012,06,06,13,45,13.80
2012,06,06,13,46,13.70
2012,06,06,13,47,13.70
2012,06,06,13,48,13.70
2012,06,06,13,49,13.80
2012,06,06,13,50,13.80
2012,06,06,13,51,13.80
2012,06,06,13,52,13.90
2012,06,06,13,53,13.80
2012,06,06,13,54,13.70
2012,06,06,13,55,13.70
2012,06,06,13,56,13.70
2012,06,06,13,57,13.70
2012,06,06,13,58,13.90
2012,06,06,13,59,13.90
2012,06,06,14,00,13.90
2012,06,06,14,01,14.00
2012,06,06,14,02,14.00
2012,06,06,14,03,14.00
2012,06,06,14,04,14.10
2012,06,06,14,05,14.10
2012,06,06,14,06,14.10
2012,06,06,14,07,14.00
2012,06,06,14,08,13.90
2012,06,06,14,09,13.80
2012,06,06,14,10,13.70
2012,06,06,14,11,13.70
2012,06,06,14,12,13.60
2012,06,06,14,13,13.60
2012,06,06,14,14,13.50
2012,06,06,14,15,13.50
2012,06,06,14,16,13.40
2012,06,06,14,17,13.40
2012,06,06,14,18,13.30
2012,06,06,14,19,13.30
2012,06,06,14,20,13.30
2012,06,06,14,21,13.30
2012,06,06,14,22,13.30
2012,06,06,14,23,13.30
2012,06,06,14,24,13.30
2012,06,06,14,25,13.30
2012,06,06,14,26,13.30
2012,06,06,14,27,13.30
2012,06,06,14,28,13.30
2012,06,06,14,29,13.30
2012,06,06,14,30,13.30
2012,06,06,14,31,13.30
2012,06,06,14,32,13.30
2012,06,06,14,33,13.30
2012,06,06,14,34,13.30
2012,06,06,14,35,13.30
2012,06,06,14,36,13.40
2012,06,06,14,37,13.40
2012,06,06,14,38,13.40
2012,06,06,14,39,13.40
2012,06,06,14,40,13.40
2012,06,06,14,41,13.30
2012,06,06,14,42,13.30
2012,06,06,14,43,13.30
2012,06,06,14,44,13.30
2012,06,06,14,45,13.30
2012,06,06,14,46,13.20
2012,06,06,14,47,13.10
2012,06,06,14,48,13.10
2012,06,06,14,49,13.10
2012,06,06,14,50,13.00
2012,06,06,14,51,12.90
2012,06,06,14,52,12.90
2012,06,06,14,53,12.90
2012,06,06,14,54,12.80
2012,06,06,14,55,12.80
2012,06,06,14,56,12.80
2012,06,06,14,57,12.90
2012,06,06,14,58,12.90
2012,06,06,14,59,12.90
2012,06,06,15,00,12.80
2012,06,06,15,01,12.80
2012,06,06,15,02,12.90
2012,06,06,15,03,12.90
2012,06,06,15,04,12.90
2012,06,06,15,05,12.90
2012,06,06,15,06,12.90
2012,06,06,15,07,12.90
2012,06,06,15,08,13.00
2012,06,06,15,09,13.00
2012,06,06,15,10,13.00
2012,06,06,15,11,13.10
2012,06,06,15,12,13.10
2012,06,06,15,13,13.20
2012,06,06,15,14,13.30
2012,06,06,15,15,13.30
2012,06,06,15,16,13.30
2012,06,06,15,17,13.30
2012,06,06,15,18,13.30
2012,06,06,15,19,13.30
2012,06,06,15,20,13.30
2012,06,06,15,21,13.40
2012,06,06,15,22,13.50
2012,06,06,15,23,13.50
2012,06,06,15,24,13.60
2012,06,06,15,25,13.60
2012,06,06,15,26,13.60
2012,06,06,15,27,13.60
2012,06,06,15,28,13.60
2012,06,06,15,29,13.60
2012,06,06,15,30,13.60
2012,06,06,15,31,13.50
2012,06,06,15,32,13.50
2012,06,06,15,33,13.40
2012,06,06,15,34,13.50
2012,06,06,15,35,13.50
2012,06,06,15,36,13.60
2012,06,06,15,37,13.60
2012,06,06,15,38,13.60
2012,06,06,15,39,13.70
2012,06,06,15,40,13.70
2012,06,06,15,41,13.70
2012,06,06,15,42,13.80
2012,06,06,15,43,13.80
2012,06,06,15,44,13.80
2012,06,06,15,45,13.90
2012,06,06,15,46,13.90
2012,06,06,15,47,13.90
2012,06,06,15,48,13.90
2012,06,06,15,49,13.90
2012,06,06,15,50,13.90
2012,06,06,15,51,14.00
2012,06,06,15,52,14.00
2012,06,06,15,53,14.10
2012,06,06,15,54,14.10
2012,06,06,15,55,14.10
2012,06,06,15,56,14.10
2012,06,06,15,57,14.00
2012,06,06,15,58,14.00
2012,06,06,15,59,14.00
2012,06,06,16,00,14.00
2012,06,06,16,01,13.90
2012,06,06,16,02,13.90
2012,06,06,16,03,13.90
2012,06,06,16,04,13.90
2012,06,06,16,05,13.90
2012,06,06,16,06,13.90
2012,06,06,16,07,13.80
2012,06,06,16,08,13.70
2012,06,06,16,09,13.70
2012,06,06,16,10,13.80
2012,06,06,16,11,13.80
2012,06,06,16,12,13.80
2012,06,06,16,13,13.80
2012,06,06,16,14,13.70
2012,06,06,16,15,13.80
2012,06,06,16,16,13.80
2012,06,06,16,17,13.80
2012,06,06,16,18,13.80
2012,06,06,16,19,13.80
2012,06,06,16,20,13.80
2012,06,06,16,21,13.80
2012,06,06,16,22,13.80
2012,06,06,16,23,13.90
2012,06,06,16,24,13.90
2012,06,06,16,25,13.80
2012,06,06,16,26,13.80
2012,06,06,16,27,13.80
2012,06,06,16,28,13.80
2012,06,06,16,29,13.80
2012,06,06,16,30,13.80
2012,06,06,16,31,13.70
2012,06,06,16,32,13.70
2012,06,06,16,33,13.70
2012,06,06,16,34,13.70
2012,06,06,16,35,13.80
2012,06,06,16,36,13.80
2012,06,06,16,37,13.80
2012,06,06,16,38,13.80
2012,06,06,16,39,13.80
2012,06,06,16,40,13.90
2012,06,06,16,41,13.90
2012,06,06,16,42,13.90
2012,06,06,16,43,13.90
2012,06,06,16,44,13.90
2012,06,06,16,45,13.80
2012,06,06,16,46,13.70
2012,06,06,16,47,13.70
2012,06,06,16,48,13.70
2012,06,06,16,49,13.70
2012,06,06,16,50,13.60
2012,06,06,16,51,13.60
2012,06,06,16,52,13.50
2012,06,06,16,53,13.60
2012,06,06,16,54,13.60
2012,06,06,16,55,13.60
2012,06,06,16,56,13.70
2012,06,06,16,57,13.70
2012,06,06,16,58,13.70
2012,06,06,16,59,13.70
2012,06,06,17,00,13.70
2012,06,06,17,01,13.70
2012,06,06,17,02,13.80
2012,06,06,17,03,13.80
2012,06,06,17,04,13.80
2012,06,06,17,05,13.80
2012,06,06,17,06,13.80
2012,06,06,17,07,13.80
2012,06,06,17,08,13.80
2012,06,06,17,09,13.70
2012,06,06,17,10,13.70
2012,06,06,17,11,13.70
2012,06,06,17,12,13.60
2012,06,06,17,13,13.60
2012,06,06,17,14,13.60
2012,06,06,17,15,13.70
2012,06,06,17,16,13.60
2012,06,06,17,17,13.70
2012,06,06,17,18,13.70
2012,06,06,17,19,13.60
2012,06,06,17,20,13.60
2012,06,06,17,21,13.60
2012,06,06,17,22,13.60
2012,06,06,17,23,13.60
2012,06,06,17,24,13.70
2012,06,06,17,25,13.70
2012,06,06,17,26,13.70
2012,06,06,17,27,13.70
2012,06,06,17,28,13.70
2012,06,06,17,29,13.70
2012,06,06,17,30,13.60
2012,06,06,17,31,13.60
2012,06,06,17,32,13.60
2012,06,06,17,33,13.60
2012,06,06,17,34,13.60
2012,06,06,17,35,13.60
2012,06,06,17,36,13.60
2012,06,06,17,37,13.60
2012,06,06,17,38,13.60